Skip Page Navigation
NASA JPL Caltech
NASA Logo - Jet Propulsion Laboratory + View the NASA Portal
+ Center for Near-Earth Object Studies
JPL Home Earth Solar System Stars & Galaxies Technology
JPL Solar System Dynamics
BODIES ORBITS EPHEMERIDES TOOLS PHYSICAL DATA DISCOVERY FAQ SITE MAP
JPL Small-Body Database Browser
Search: [ help ]  
72045 (2000 YJ6)
Classification: Main-belt Asteroid          SPK-ID: 2072045
Ephemeris | Orbit Diagram | Orbital Elements | Mission Design | Physical Parameters | Discovery Circumstances ]

[ show orbit diagram ]
Orbital Elements at Epoch 2459200.5 (2020-Dec-17.0) TDB
Reference: JPL 27 (heliocentric ecliptic J2000)
 Element Value Uncertainty (1-sigma)   Units 
e .09675645395138659 3.0651e-08  
a 2.241371280523768 6.7101e-09 au
q 2.024504143431809 7.0497e-08 au
i 4.500735363660342 3.5522e-06 deg
node 47.3755618704262 3.984e-05 deg
peri 110.7806507364972 4.4357e-05 deg
M 284.4741898126031 1.8788e-05 deg
tp 2459457.635490474342
(2021-Aug-31.13549047)
6.4171e-05 TDB
period 1225.657511532531
3.36
5.5039e-06
1.507e-08
d
yr
n .2937198985953793 1.319e-09 deg/d
Q 2.458238417615726 7.3593e-09 au
  Orbit Determination Parameters
   # obs. used (total)      1667  
   data-arc span      14668 days (40.16 yr)  
   first obs. used      1981-01-08  
   last obs. used      2021-03-07  
   planetary ephem.      DE441  
   SB-pert. ephem.      SB441-N16  
   condition code      0  
   norm. resid. RMS      .46579  
   source      ORB  
   producer      Otto Matic  
   solution date      2021-Apr-13 12:59:56  

Additional Information
 Earth MOID = 1.03798 au 
 Jupiter MOID = 2.52111 au 
 T_jup = 3.624 
[ show covariance matrix ]

Ephemeris | Orbit Diagram | Orbital Elements | Mission Design | Physical Parameters | Discovery Circumstances ]

Physical Parameter Table
Parameter Symbol Value Units Sigma Reference Notes
absolute magnitude H 14.89   n/a MPCxxxxx  

72045 (2000 YJ6)          Discovered 2000-Dec-20 by LINEAR at Socorro
Reference: 20031109/Numbers.arcLast Updated: 2004-04-19

Alternate Designations
 2000 YJ6 = 1981 AJ3 
Ephemeris | Orbit Diagram | Orbital Elements | Mission Design | Physical Parameters | Discovery Circumstances ]
ABOUT SSD CREDITS/AWARDS PRIVACY/COPYRIGHT GLOSSARY LINKS
FirstGov 2021-Jun-14 07:27 UT
(server date/time)  
NASA Home Page
Site Manager:   Ryan S. Park
Webmaster  Alan B. Chamberlin